Simultaneous Nadir Overpasses (SNOs) Predictions

Prediction of SNOs between GOES-16 and TERRA Satellite Orbit:

Table of predicted SNOs for the next 14.0 days since TLE Epoch: 7/23/2022
Index Date Time (GOES-16) GOES-16 Lat,Lon TERRA Lat,Lon Distance(km) Time Diff (sec)
1 07/24/2022 03:10:55 0.01, -75.20 0.48, -73.09 240.20 80
2 07/24/2022 15:29:28 -0.01, -75.21 0.61, -78.24 344.44 80
3 07/26/2022 15:19:50 0.02, -75.22 0.02, -75.27 5.86 80
4 07/28/2022 15:04:54 0.01, -75.23 -0.63, -72.31 332.49 80
5 07/29/2022 03:28:55 -0.01, -75.22 -0.51, -77.49 258.80 80
6 07/31/2022 03:13:58 0.00, -75.24 0.16, -74.54 80.58 80
7 08/02/2022 03:01:40 0.01, -75.27 0.78, -71.57 420.68 80
8 08/02/2022 15:25:34 -0.01, -75.29 0.31, -76.73 163.24 80
9 08/04/2022 15:10:36 -0.01, -75.32 -0.32, -73.76 177.63 80
10 08/05/2022 03:34:39 0.00, -75.32 -0.75, -78.95 412.99 80
